When you browse on this site, cookies collect data to enhance your experience and personalize the content and advertising you see.
Visit our Privacy Policy to learn more. By continuing to use the site, you agree to this use of cookies and data.
  • In Hungary
  • List of Countries
  • For 7 days
  • Water Temperature
  • Weather Map
  • News
  • Weather Widgets
  • user-avatar
    Login

    Hourly Weather La Paz

    Today, 30 May, Saturday

    Time Temperature Precipitation Wind Pressure Humidity
    00:00 +4°C° 0 mm 1 mps 471 mmHg 73%
    01:00 +4°C° 0 mm 1 mps 471 mmHg 73%
    02:00 +4°C° 0 mm 1 mps 471 mmHg 68%
    03:00 +3°C° 0 mm 1 mps 470 mmHg 64%
    04:00 +3°C° 0 mm 1 mps 470 mmHg 60%
    05:00 +3°C° 0 mm 0 mps 471 mmHg 55%
    06:00 +5°C° 0 mm 0 mps 473 mmHg 50%
    07:00 +6°C° 0 mm 0 mps 474 mmHg 44%
    08:00 +8°C° 0 mm 0 mps 475 mmHg 39%
    09:00 +10°C° 0 mm 1 mps 476 mmHg 34%
    10:00 +12°C° 0 mm 1 mps 477 mmHg 29%
    11:00 +13°C° 0 mm 1 mps 477 mmHg 30%
    12:00 +13°C° 0 mm 2 mps 477 mmHg 31%
    13:00 +14°C° 0 mm 2 mps 477 mmHg 32%
    14:00 +13°C° 0 mm 2 mps 476 mmHg 37%
    15:00 +12°C° 0 mm 2 mps 475 mmHg 42%
    16:00 +12°C° 0 mm 2 mps 474 mmHg 47%
    17:00 +9°C° 0 mm 2 mps 474 mmHg 54%
    18:00 +7°C° 0 mm 2 mps 473 mmHg 61%
    19:00 +6°C° 0 mm 1 mps 472 mmHg 68%
    20:00 +6°C° 0 mm 1 mps 472 mmHg 68%
    21:00 +5°C° 0 mm 1 mps 472 mmHg 69%
    22:00 +4°C° 0 mm 2 mps 472 mmHg 69%
    23:00 +5°C° 0 mm 1 mps 472 mmHg 70%

    Tomorrow, 31 May, Sunday

    Time Temperature Precipitation Wind Pressure Humidity
    00:00 +4°C° 0 mm 1 mps 471 mmHg 71%
    01:00 +2°C° 0 mm 0 mps 471 mmHg 72%
    02:00 +2°C° 0 mm 0 mps 471 mmHg 72%
    03:00 +2°C° 0 mm 0 mps 471 mmHg 73%
    04:00 +1°C° 0 mm 0 mps 470 mmHg 73%
    05:00 +3°C° 0 mm 0 mps 472 mmHg 69%
    06:00 +4°C° 0 mm 0 mps 473 mmHg 64%
    07:00 +5°C° 0 mm 0 mps 474 mmHg 60%
    08:00 +7°C° 0 mm 1 mps 475 mmHg 56%
    09:00 +9°C° 0 mm 1 mps 476 mmHg 53%
    10:00 +11°C° 0 mm 1 mps 477 mmHg 49%
    11:00 +10°C° 0 mm 2 mps 476 mmHg 48%
    12:00 +11°C° 0 mm 3 mps 476 mmHg 48%
    13:00 +11°C° 0 mm 4 mps 476 mmHg 47%
    14:00 +11°C° 0 mm 4 mps 475 mmHg 46%
    15:00 +11°C° 0 mm 3 mps 475 mmHg 45%
    16:00 +10°C° 0 mm 3 mps 474 mmHg 45%
    17:00 +9°C° 0 mm 3 mps 474 mmHg 53%
    18:00 +7°C° 0 mm 3 mps 473 mmHg 62%
    19:00 +5°C° 0 mm 2 mps 472 mmHg 71%
    20:00 +4°C° 0 mm 2 mps 472 mmHg 76%
    21:00 +4°C° 0 mm 2 mps 472 mmHg 80%
    22:00 +3°C° 0 mm 2 mps 473 mmHg 85%
    23:00 +4°C° 0 mm 1 mps 472 mmHg 85%

    Day after tomorrow, 1 June, Monday

    Time Temperature Precipitation Wind Pressure Humidity
    00:00 +3°C° 0 mm 1 mps 472 mmHg 85%
    01:00 +2°C° 0 mm 0 mps 472 mmHg 85%
    02:00 +2°C° 0 mm 0 mps 471 mmHg 87%
    03:00 +1°C° 0 mm 0 mps 471 mmHg 88%
    04:00 +1°C° 0 mm 0 mps 470 mmHg 90%
    05:00 +2°C° 0 mm 0 mps 471 mmHg 84%
    06:00 +3°C° 0 mm 0 mps 472 mmHg 78%
    07:00 +5°C° 0 mm 1 mps 474 mmHg 73%
    08:00 +7°C° 0 mm 1 mps 475 mmHg 65%
    09:00 +8°C° 0 mm 2 mps 476 mmHg 58%
    10:00 +10°C° 0 mm 3 mps 477 mmHg 51%
    11:00 +10°C° 0 mm 4 mps 477 mmHg 47%
    12:00 +10°C° 0 mm 6 mps 477 mmHg 44%
    13:00 +11°C° 0 mm 7 mps 477 mmHg 40%
    14:00 +11°C° 0 mm 6 mps 476 mmHg 41%
    15:00 +10°C° 0 mm 5 mps 475 mmHg 42%
    16:00 +11°C° 0 mm 4 mps 475 mmHg 42%
    17:00 +9°C° 0 mm 3 mps 474 mmHg 49%
    18:00 +8°C° 0 mm 3 mps 474 mmHg 55%
    19:00 +5°C° 0 mm 3 mps 473 mmHg 61%
    20:00 +5°C° 0 mm 2 mps 473 mmHg 60%
    21:00 +4°C° 0 mm 2 mps 473 mmHg 58%
    22:00 +4°C° 0 mm 1 mps 473 mmHg 57%
    23:00 +4°C° 0 mm 1 mps 472 mmHg 58%

    2 June, Tuesday

    Time Temperature Precipitation Wind Pressure Humidity
    00:00 +3°C° 0 mm 1 mps 472 mmHg 58%
    01:00 +3°C° 0 mm 1 mps 471 mmHg 59%
    02:00 +3°C° 0 mm 1 mps 471 mmHg 59%
    03:00 +2°C° 0 mm 1 mps 471 mmHg 59%
    04:00 +2°C° 0 mm 1 mps 470 mmHg 59%
    05:00 +3°C° 0 mm 1 mps 472 mmHg 56%
    06:00 +4°C° 0 mm 1 mps 473 mmHg 52%
    07:00 +5°C° 0 mm 1 mps 474 mmHg 49%
    08:00 +6°C° 0 mm 2 mps 475 mmHg 45%
    09:00 +8°C° 0 mm 3 mps 476 mmHg 41%
    10:00 +8°C° 0 mm 4 mps 477 mmHg 37%
    11:00 +10°C° 0 mm 4 mps 477 mmHg 35%
    12:00 +10°C° 0 mm 5 mps 476 mmHg 33%
    13:00 +12°C° 0 mm 5 mps 476 mmHg 31%
    14:00 +11°C° 0 mm 4 mps 475 mmHg 32%
    15:00 +11°C° 0 mm 4 mps 475 mmHg 33%
    16:00 +10°C° 0 mm 3 mps 474 mmHg 34%
    17:00 +8°C° 0 mm 3 mps 473 mmHg 39%
    18:00 +6°C° 0 mm 2 mps 472 mmHg 44%
    19:00 +4°C° 0 mm 2 mps 471 mmHg 49%
    20:00 +4°C° 0 mm 2 mps 471 mmHg 49%
    21:00 +4°C° 0 mm 1 mps 471 mmHg 49%
    22:00 +4°C° 0 mm 1 mps 471 mmHg 49%
    23:00 +3°C° 0 mm 1 mps 471 mmHg 46%

    3 June, Wednesday

    Time Temperature Precipitation Wind Pressure Humidity
    00:00 +3°C° 0 mm 1 mps 470 mmHg 42%
    01:00 +2°C° 0 mm 1 mps 470 mmHg 39%
    02:00 +2°C° 0 mm 1 mps 469 mmHg 40%
    03:00 0°C° 0 mm 0 mps 469 mmHg 40%
    04:00 0°C° 0 mm 0 mps 469 mmHg 40%
    05:00 +2°C° 0 mm 1 mps 470 mmHg 38%
    06:00 +4°C° 0 mm 1 mps 471 mmHg 35%
    07:00 +5°C° 0 mm 1 mps 473 mmHg 33%
    08:00 +6°C° 0 mm 2 mps 474 mmHg 33%
    09:00 +8°C° 0 mm 2 mps 475 mmHg 34%
    10:00 +9°C° 0 mm 3 mps 476 mmHg 34%
    11:00 +10°C° 0 mm 4 mps 475 mmHg 35%
    12:00 +10°C° 0 mm 5 mps 475 mmHg 36%
    13:00 +11°C° 0 mm 7 mps 475 mmHg 37%
    14:00 +10°C° 0 mm 6 mps 474 mmHg 40%
    15:00 +11°C° 0 mm 4 mps 474 mmHg 43%
    16:00 +10°C° 0 mm 3 mps 473 mmHg 45%
    17:00 +8°C° 0 mm 3 mps 473 mmHg 58%
    18:00 +7°C° 0 mm 3 mps 472 mmHg 70%
    19:00 +5°C° 0 mm 2 mps 471 mmHg 83%
    20:00 +5°C° 0.1 mm 2 mps 472 mmHg 85%
    21:00 +6°C° 0.1 mm 1 mps 472 mmHg 86%
    22:00 +6°C° 0.1 mm 1 mps 472 mmHg 88%
    23:00 +5°C° 0.1 mm 1 mps 472 mmHg 89%

    4 June, Thursday

    Time Temperature Precipitation Wind Pressure Humidity
    00:00 +5°C° 0.1 mm 1 mps 472 mmHg 91%
    01:00 +5°C° 0.1 mm 1 mps 472 mmHg 92%
    02:00 +5°C° 0.1 mm 1 mps 472 mmHg 92%
    03:00 +5°C° 0.1 mm 1 mps 472 mmHg 93%
    04:00 +5°C° 0.1 mm 1 mps 471 mmHg 93%
    05:00 +4°C° 0 mm 0 mps 472 mmHg 91%
    06:00 +4°C° 0 mm 0 mps 473 mmHg 89%
    07:00 +5°C° 0 mm 0 mps 473 mmHg 87%
    08:00 +7°C° 0.1 mm 1 mps 474 mmHg 80%
    09:00 +8°C° 0.1 mm 2 mps 475 mmHg 73%
    10:00 +9°C° 0.1 mm 3 mps 476 mmHg 65%
    11:00 +10°C° 0.3 mm 4 mps 476 mmHg 63%
    12:00 +10°C° 0.3 mm 4 mps 475 mmHg 60%
    13:00 +9°C° 0.3 mm 5 mps 475 mmHg 57%
    14:00 +9°C° 0.2 mm 5 mps 475 mmHg 57%
    15:00 +10°C° 0.2 mm 4 mps 475 mmHg 57%
    16:00 +10°C° 0.2 mm 4 mps 475 mmHg 57%
    17:00 +9°C° 0.1 mm 3 mps 474 mmHg 65%
    18:00 +8°C° 0.1 mm 2 mps 474 mmHg 73%
    19:00 +6°C° 0.1 mm 2 mps 474 mmHg 81%
    20:00 +5°C° 0.7 mm 2 mps 473 mmHg 85%
    21:00 +5°C° 0.7 mm 2 mps 473 mmHg 88%
    22:00 +4°C° 0.7 mm 2 mps 473 mmHg 91%
    23:00 +5°C° 0.2 mm 1 mps 473 mmHg 91%
    Show more